Regional Weather Roundup
Issued by NWS

Home | Current Version | Previous Version | Text Only | Print | Product List | Glossary Off
Versions: 1 2 3 4 5 6 7 8 9 10 11 12 13 14 15 16 17 18 19 20 21 22 23 24 25 26 27 28 29 30 31 32 33 34 35 36 37 38 39 40 41 42 43 44 45 46 47 48 49 50

000
ASUS43 KDMX 041306
RWRIA

WEATHER ROUNDUP FOR IOWA
NATIONAL WEATHER SERVICE DES MOINES IA
700 AM CST SUN DEC 04 2016

NOTE: "FAIR" INDICATES FEW OR NO CLOUDS BELOW 12,000 FEET WITH NO
SIGNIFICANT WEATHER AND/OR OBSTRUCTIONS TO VISIBILITY.

* - THESE STATIONS ARE NOT NWS STATIONS...THUS NOT UNDER NWS
QUALITY CONTROL.  THEY ALSO DO NOT REPORT WEATHER SUCH
AS PRECIPITATION OR FOG.

IAZ001>003-012>014-020>022-031>034-043>046-041400-
   NORTHWEST IOWA

CITY           SKY/WX    TMP DP  RH WIND       PRES   REMARKS
CARROLL *      CLOUDY    34  34 100 SW8       29.94F FOG     WCI  27
CHEROKEE *     CLOUDY    32  32 100 SW6       29.92F FOG     WCI  27
DENISON *      CLOUDY    32  32 100 SW8       29.94R WCI  25
LE MARS *      CLOUDY    32  32 100 S7        29.93S WCI  26
ORANGE CITY *  CLOUDY    34  34 100 SW3       29.90S FOG
SHELDON *      CLOUDY    34  34 100 SW9       29.89S WCI  26
SIOUX CITY     CLEAR     33  31  92 S6        29.94S WCI  28
SPENCER        CLOUDY    33  32  96 SW12      29.91S WCI  24
STORM LAKE *   CLOUDY    32  32 100 W13       29.91S FOG     WCI  22
$$

IAZ055>058-069>071-079>083-090>094-041400-
   SOUTHWEST IOWA

CITY           SKY/WX    TMP DP  RH WIND       PRES   REMARKS
ATLANTIC *     CLOUDY    34  34 100 SW6       29.96F FOG     WCI  29
AUDUBON *      CLOUDY    34  30  86 SW6       29.96S FOG     WCI  29
CLARINDA *       N/A     34  34 100 CALM      29.99F
COUNCIL BLFS * CLOUDY    32  32 100 SW7       29.97S FOG     WCI  26
CRESTON *      LGT SNOW  32  32 100 S8        29.99F WCI  25
HARLAN  *      CLOUDY    34  34 100 SW7       30.00S FOG     WCI  28
LAMONI         LGT SNOW  33  32  96 S7        29.99F FOG     WCI  27
RED OAK *      CLOUDY    36  36 100 SW7       29.98F WCI  30
SHENANDOAH *   CLOUDY    36  36 100 W8        29.99F WCI  29
$$

IAZ047>049-059>061-072>074-084-041400-
   CENTRAL IOWA

CITY           SKY/WX    TMP DP  RH WIND       PRES   REMARKS
AMES           LGT SNOW  33  33 100 S9        29.98F VSB 1   WCI  25
ANKENY *       LGT SNOW  32  32 100 MISG      30.00F
BOONE *        LGT SNOW  32  32 100 S8        29.96S VSB 1   WCI  25
CHARITON *     LGT SNOW  32  32 100 S10       30.00F WCI  24
DES MOINES     LGT SNOW  34  33  96 S8        30.00S VSB 1   WCI  27
GRINNELL*      LGT SNOW  32  32  99 S7        30.02S WCI  26
KNOXVILLE *    MIX PCPN  34  32  93 S9        29.99F WCI  26
MARSHALLTOWN   LGT SNOW  33  33 100 S13       29.99S FOG     WCI  24
NEWTON *       FOG       32  32 100 S7        30.00F VSB 3/4 WCI  26
PELLA *        LGT SNOW  34  33  96 S8        30.03S WCI  27
PERRY *        LGT SNOW  33  33 100 S6        29.97F WCI  27
$$

IAZ004>006-015-016-023>025-035-036-041400-
   NORTH CENTRAL IOWA

CITY           SKY/WX    TMP DP  RH WIND       PRES   REMARKS
ALGONA *       FOG       34  34 100 S13       29.92S VSB 1/4 WCI  25
CLARION *      CLOUDY    32  32 100 S17       29.95S FOG     WCI  21
ESTHERVILLE    CLOUDY    32  32 100 S9        29.89F WCI  24
FORT DODGE *   CLOUDY    34  30  86 S10       29.95S WCI  26
MASON CITY     LGT SNOW  32  32 100 S12       29.95F FOG     WCI  23
FOREST CITY *  CLOUDY    32  32 100 S10       29.93S WCI  24
WEBSTER CITY * CLOUDY    34  34 100 S13       29.93F WCI  25
IOWA FALLS *   LGT SNOW  34  32  95 S10       29.97F WCI  26
$$

IAZ007>011-017>019-026>030-037>042-050>054-066-041400-
   NORTHEAST IOWA

CITY           SKY/WX    TMP DP  RH WIND       PRES   REMARKS
CEDAR RAPIDS   LGT SNOW  32  32 100 SE8       30.03F FOG     WCI  25
CHARLES CITY * LGT SNOW  32  32 100 S15       29.97F VSB 1   WCI  22
CLINTON *      LGT SNOW  31  29  92 SE15      30.10F FOG     WCI  20
DECORAH *      LGT SNOW  32  32 100 SE13      29.98F WCI  22
DUBUQUE        LGT SNOW  30  28  92 SE13      30.05F FOG     WCI  20
MONTICELLO *   LGT SNOW  32  30  93 SE12      30.05F WCI  23
OELWEIN *      LGT SNOW  32  32 100 S18       30.01F VSB 3/4 WCI  20
WATERLOO       LGT SNOW  33  31  92 S13       29.99F FOG     WCI  24
$$

IAZ064-065-067-068-078-041400-
   EAST CENTRAL IOWA

CITY           SKY/WX    TMP DP  RH WIND       PRES   REMARKS
DAVENPORT      LGT SNOW  31  30  96 SE12      30.09F VSB 1   WCI  22
IOWA CITY      LGT SNOW  33  32  96 SE10      30.07F VSB 1   WCI  25
MUSCATINE *    LGT SNOW  34  32  93 SE8       30.08F WCI  27
QUAD CITIES    LGT SNOW  33  30  88 SE8       30.10S VSB 3/4 WCI  26
$$

IAZ062-063-075>077-085>089-095>099-041400-
   SOUTHEAST IOWA

CITY           SKY/WX    TMP DP  RH WIND       PRES   REMARKS
BURLINGTON     LGT SNOW  32  32 100 E9        30.06F VSB 1   WCI  24
FAIRFIELD *    CLOUDY    32  32 100 SE9       30.04F FOG     WCI  24
FORT MADISON * LGT SNOW  34  32  93 E7        30.06F WCI  28
KEOKUK *       LGT SNOW  34  32  93 E8        30.05F WCI  27
OSKALOOSA *    LGT SNOW  32  32 100 S6        30.03F WCI  26
CENTERVILLE *  LGT SNOW  32  32 100 CALM      30.03F
OTTUMWA        LGT SNOW  33  31  92 S7        30.03S FOG     WCI  27
WASHINGTON *   LGT SNOW  32  32 100 SE13      30.05F VSB 3/4 WCI  22
$$

ABBREVIATIONS USED IN REMARKS
   TC - TEMPERATURES IN CELSIUS
  WCI - WIND CHILL INDEX
   HX - HEAT INDEX
  VSB - VISIBILITY
$$




USA.gov is the U.S. government's official web portal to all federal, state and local government web resources and services.